This is the latest recevied weather packets stored in our database for station/object N1YZ. If no packets are shown the sender has not sent any weather packets the latest 10 day(s).
| Time | Temp. | Humidity | Pressure | Rain* | Wind** | Luminosity | Snow |
|---|---|---|---|---|---|---|---|
| 1777853469 | 18.33° C | 51% | 1037.1 hPa | 0 mm | - | 6 W/m² | - |
| 1777853167 | 18.33° C | 49% | 1037.2 hPa | 0 mm | - | 7 W/m² | - |
| 1777852865 | 18.33° C | 49% | 1036.7 hPa | 0 mm | - | 8 W/m² | - |
| 1777852563 | 18.33° C | 51% | 1037.2 hPa | 0 mm | - | 9 W/m² | - |
| 1777852259 | 18.33° C | 52% | 1037 hPa | 0 mm | - | 10 W/m² | - |
| 1777851957 | 18.33° C | 50% | 1036.9 hPa | 0 mm | - | 11 W/m² | - |
| 1777851655 | 18.33° C | 50% | 1036.9 hPa | 0 mm | - | 12 W/m² | - |
| 1777851351 | 18.33° C | 48% | 1037 hPa | 0 mm | - | 13 W/m² | - |
| 1777851047 | 18.33° C | 50% | 1036.8 hPa | 0 mm | - | 14 W/m² | - |
| 1777850744 | 18.89° C | 51% | 1036.8 hPa | 0 mm | - | 15 W/m² | - |
| 1777850442 | 18.89° C | 50% | 1037.1 hPa | 0 mm | - | 15 W/m² | - |
| 1777850140 | 19.44° C | 47% | 1036.8 hPa | 0 mm | - | 16 W/m² | - |
| 1777849836 | 19.44° C | 46% | 1036.9 hPa | 0 mm | - | 17 W/m² | - |
| 1777849533 | 19.44° C | 46% | 1037.1 hPa | 0 mm | - | 17 W/m² | - |
| 1777849230 | 19.44° C | 45% | 1037.1 hPa | 0 mm | - | 18 W/m² | - |
| 1777848927 | 20° C | 46% | 1037.1 hPa | 0 mm | - | 19 W/m² | - |
| 1777848621 | 20° C | 46% | 1037.2 hPa | 0 mm | - | 20 W/m² | - |
| 1777848320 | 20° C | 47% | 1037.3 hPa | 0 mm | - | 21 W/m² | - |
| 1777848017 | 20° C | 46% | 1037.1 hPa | 0 mm | - | 21 W/m² | - |
| 1777847715 | 20° C | 45% | 1037 hPa | 0 mm | - | 24 W/m² | - |
| 1777847410 | 20.56° C | 46% | 1036.9 hPa | 0 mm | - | 24 W/m² | - |
| 1777847109 | 20.56° C | 43% | 1037.1 hPa | 0 mm | - | 26 W/m² | - |
| 1777846806 | 21.11° C | 43% | 1037 hPa | 0 mm | - | 27 W/m² | - |
| 1777846504 | 21.67° C | 40% | 1037.2 hPa | 0 mm | - | 30 W/m² | - |
| 1777846201 | 21.67° C | 40% | 1037.2 hPa | 0 mm | - | 33 W/m² | - |
* Rain latest hour (hover to see other rain measurements)
** Current wind speed in m/s (hover to see current wind gust speed)